EZY122 EDDF-EDDH

Flight info

Callsign EZY122
Flight time N/A
Altitude 35000
Route MARUN3W/25C MARUN Y150 TOLGI DCT SAS/N0447F340 P605 NOLGO NOLGO3P/23
Aircraft A320/M-SDE3FGHIRWY/LB1

Departure

Time N/A
Airport Frankfurt Main Airport (EDDF)

Arrival

Time 2026-04-24 19:09
Airport Hamburg Helmut Schmidt Airport (EDDH)
Time Latitude Longitude Altitude Speed Heading
2026-04-24 18:54 53.57945 9.88739 3017 ft 213 kts 236°
2026-04-24 18:55 53.55299 9.86539 3271 ft 233 kts 175°
2026-04-24 18:55 53.53803 9.87504 3400 ft 231 kts 138°
2026-04-24 18:55 53.52886 9.89606 3546 ft 219 kts 101°
2026-04-24 18:56 53.52647 9.92104 3772 ft 219 kts 86°
2026-04-24 18:56 53.52575 9.94674 3957 ft 221 kts 84°
2026-04-24 18:56 53.52527 9.97267 4006 ft 222 kts 84°
2026-04-24 18:56 53.52476 9.99844 4008 ft 220 kts 84°
2026-04-24 18:57 53.52425 10.02422 4008 ft 220 kts 84°
2026-04-24 18:57 53.52375 10.04990 4009 ft 220 kts 84°
2026-04-24 18:57 53.52330 10.07564 4008 ft 221 kts 84°
2026-04-24 18:57 53.52310 10.10142 4008 ft 218 kts 77°
2026-04-24 18:58 53.52749 10.12504 3997 ft 221 kts 57°
2026-04-24 18:58 53.53472 10.14865 4006 ft 226 kts 54°
2026-04-24 18:58 53.54223 10.17192 4007 ft 227 kts 54°
2026-04-24 18:58 53.54971 10.19498 4007 ft 227 kts 54°
2026-04-24 18:59 53.55739 10.21860 4006 ft 227 kts 54°
2026-04-24 18:59 53.56503 10.24202 4011 ft 229 kts 54°
2026-04-24 18:59 53.57257 10.26527 4007 ft 230 kts 54°
2026-04-24 18:59 53.58029 10.28925 4005 ft 229 kts 54°
2026-04-24 19:00 53.58774 10.31255 4001 ft 230 kts 54°
2026-04-24 19:00 53.59533 10.33624 3988 ft 230 kts 54°
2026-04-24 19:00 53.60297 10.35997 3984 ft 230 kts 54°
2026-04-24 19:00 53.61063 10.38372 3982 ft 231 kts 54°
2026-04-24 19:01 53.62007 10.40444 3982 ft 218 kts 29°
2026-04-24 19:01 53.63336 10.41571 3983 ft 213 kts 16°
2026-04-24 19:01 53.64728 10.42435 3979 ft 213 kts 15°
2026-04-24 19:01 53.66133 10.43260 3976 ft 213 kts 14°
2026-04-24 19:02 53.67076 10.43813 3975 ft 213 kts 14°
2026-04-24 19:02 53.68934 10.44889 3968 ft 213 kts 12°
2026-04-24 19:02 53.70375 10.44937 3963 ft 207 kts 340°
2026-04-24 19:02 53.71634 10.43782 3959 ft 206 kts 326°
2026-04-24 19:03 53.72799 10.42371 3960 ft 203 kts 324°
2026-04-24 19:03 53.73880 10.41016 3961 ft 188 kts 324°
2026-04-24 19:03 53.74920 10.39704 3965 ft 186 kts 324°
2026-04-24 19:03 53.75899 10.38289 3967 ft 187 kts 308°
2026-04-24 19:04 53.76295 10.36179 3885 ft 198 kts 275°
2026-04-24 19:04 53.76127 10.33833 3760 ft 203 kts 267°
2026-04-24 19:04 53.75844 10.31486 3640 ft 205 kts 265°
2026-04-24 19:04 53.75545 10.29138 3542 ft 204 kts 265°
2026-04-24 19:05 53.75239 10.26801 3415 ft 203 kts 265°
2026-04-24 19:05 53.74929 10.24475 3289 ft 203 kts 265°
2026-04-24 19:05 53.74498 10.22243 3164 ft 202 kts 247°
2026-04-24 19:05 53.73641 10.20401 3095 ft 194 kts 238°
2026-04-24 19:06 53.72795 10.18684 2932 ft 187 kts 239°
2026-04-24 19:06 53.71975 10.17012 2705 ft 183 kts 239°
2026-04-24 19:06 53.71169 10.15368 2476 ft 180 kts 238°
2026-04-24 19:06 53.70378 10.13754 2237 ft 177 kts 238°
2026-04-24 19:07 53.69611 10.12190 1998 ft 173 kts 237°
2026-04-24 19:07 53.68845 10.10631 1767 ft 165 kts 237°
2026-04-24 19:07 53.68371 10.09670 1607 ft 158 kts 238°
2026-04-24 19:07 53.67444 10.07777 1334 ft 164 kts 237°
2026-04-24 19:08 53.66718 10.06299 1092 ft 161 kts 236°
2026-04-24 19:08 53.66041 10.04932 865 ft 144 kts 236°
2026-04-24 19:08 53.65429 10.03688 664 ft 133 kts 237°
2026-04-24 19:08 53.64845 10.02500 489 ft 128 kts 237°
2026-04-24 19:09 53.64283 10.01361 306 ft 126 kts 236°
2026-04-24 19:09 53.63732 10.00243 146 ft 122 kts 236°
2026-04-24 19:09 53.63215 9.99187 53 ft 104 kts 231°
2026-04-24 19:09 53.62925 9.98612 49 ft 29 kts 226°
2026-04-24 19:10 53.62875 9.98538 49 ft 5 kts 205°
2026-04-24 19:10 53.62792 9.98485 51 ft 11 kts 195°
2026-04-24 19:10 53.62729 9.98476 51 ft 0 kts 179°
2026-04-24 19:11 53.62708 9.98485 48 ft 10 kts 150°
2026-04-24 19:11 53.62711 9.98593 49 ft 10 kts 52°
2026-04-24 19:12 53.62780 9.98739 51 ft 21 kts 51°
2026-04-24 19:12 53.62876 9.98929 50 ft 21 kts 48°
2026-04-24 19:12 53.62966 9.99113 50 ft 20 kts 51°
2026-04-24 19:12 53.63045 9.99277 50 ft 10 kts 53°
2026-04-24 19:13 53.63071 9.99336 50 ft 9 kts 53°
2026-04-24 19:13 53.63081 9.99359 50 ft 0 kts 53°
2026-04-24 19:14 53.63082 9.99361 50 ft 3 kts 53°
2026-04-24 19:14 53.63113 9.99433 50 ft 9 kts 53°
2026-04-24 19:14 53.63167 9.99557 48 ft 18 kts 53°
2026-04-24 19:15 53.63216 9.99661 50 ft 0 kts 52°
2026-04-24 19:16 53.63227 9.99721 47 ft 9 kts 97°
2026-04-24 19:16 53.63194 9.99790 50 ft 7 kts 146°
2026-04-24 19:16 53.63150 9.99834 49 ft 7 kts 151°
2026-04-24 19:17 53.63108 9.99867 50 ft 7 kts 155°
2026-04-24 19:17 53.63068 9.99897 50 ft 6 kts 155°
2026-04-24 19:17 53.63021 9.99935 51 ft 8 kts 155°
2026-04-24 19:17 53.62974 9.99976 50 ft 7 kts 147°
2026-04-24 19:18 53.62954 10.00043 51 ft 6 kts 80°
2026-04-24 19:18 53.62963 10.00105 51 ft 5 kts 92°
2026-04-24 19:18 53.62955 10.00159 51 ft 4 kts 108°
2026-04-24 19:18 53.62944 10.00206 51 ft 4 kts 111°
2026-04-24 19:19 53.62938 10.00238 48 ft 0 kts 109°